This is the latest recevied weather packets stored in our database for station/object WW4HG. If no packets are shown the sender has not sent any weather packets the latest 10 day(s).
| Time | Temp. | Humidity | Pressure | Rain* | Wind** | Luminosity | Snow |
|---|---|---|---|---|---|---|---|
| 1777580951 | 21.67° C | 54% | 1009.9 hPa | 0 mm | - | 52 W/m² | - |
| 1777580646 | 21.67° C | 54% | 1009.9 hPa | 0 mm | - | 63 W/m² | - |
| 1777580341 | 21.67° C | 55% | 1009.9 hPa | 0 mm | - | 69 W/m² | - |
| 1777580038 | 21.67° C | 56% | 1009.6 hPa | 0 mm | - | 83 W/m² | - |
| 1777579734 | 21.67° C | 56% | 1009.9 hPa | 0 mm | - | 91 W/m² | - |
| 1777579432 | 21.67° C | 56% | 1009.9 hPa | 0 mm | - | 93 W/m² | - |
| 1777579128 | 21.67° C | 56% | 1010.6 hPa | 0 mm | - | 105 W/m² | - |
| 1777578827 | 21.67° C | 57% | 1010.6 hPa | 0 mm | - | 105 W/m² | - |
| 1777578523 | 21.67° C | 56% | 1010.2 hPa | 0 mm | - | 94 W/m² | - |
| 1777578218 | 21.67° C | 56% | 1010.2 hPa | 0 mm | - | 93 W/m² | - |
| 1777577914 | 21.67° C | 56% | 1010.2 hPa | 0 mm | - | 117 W/m² | - |
| 1777577610 | 21.67° C | 56% | 1010.6 hPa | 0 mm | - | 124 W/m² | - |
| 1777577307 | 21.67° C | 56% | 1010.6 hPa | 0 mm | - | 155 W/m² | - |
| 1777577002 | 21.67° C | 57% | 1010.2 hPa | 0 mm | - | 165 W/m² | - |
| 1777576700 | 21.67° C | 57% | 1010.6 hPa | 0 mm | - | 178 W/m² | - |
| 1777576398 | 21.67° C | 57% | 1010.6 hPa | 0 mm | - | 172 W/m² | - |
| 1777576095 | 21.67° C | 57% | 1010.6 hPa | 0 mm | - | 175 W/m² | - |
| 1777575791 | 21.67° C | 58% | 1010.6 hPa | 0 mm | - | 181 W/m² | - |
| 1777575488 | 21.67° C | 58% | 1010.6 hPa | 0 mm | - | 184 W/m² | - |
| 1777575184 | 21.67° C | 57% | 1010.9 hPa | 0 mm | - | 170 W/m² | - |
| 1777574880 | 21.67° C | 57% | 1010.9 hPa | 0 mm | - | 138 W/m² | - |
| 1777574577 | 21.67° C | 57% | 1010.6 hPa | 0 mm | - | 136 W/m² | - |
| 1777574273 | 21.67° C | 57% | 1010.6 hPa | 0 mm | - | 138 W/m² | - |
| 1777573968 | 21.11° C | 57% | 1010.6 hPa | 0 mm | - | 147 W/m² | - |
| 1777573663 | 21.11° C | 57% | 1010.6 hPa | 0 mm | - | 170 W/m² | - |
* Rain latest hour (hover to see other rain measurements)
** Current wind speed in m/s (hover to see current wind gust speed)